Stations météo

Publicité
Cazaux, France (7502): Température de l'air & dewpoint: 24.03.2020 15:00:00 - 30.03.2020 15:00:00 (CEST)Cazaux, France (7502): Température de l'air 5cm: 24.03.2020 15:00:00 - 30.03.2020 15:00:00 (CEST)Cazaux, France (7502): Température de l'air -20cm & Température de l'air -100cm: 24.03.2020 15:00:00 - 30.03.2020 15:00:00 (CEST)Cazaux, France (7502): Vitesse du vent & gusts: 24.03.2020 15:00:00 - 30.03.2020 15:00:00 (CEST)Cazaux, France (7502): Direction du vent: 24.03.2020 15:00:00 - 30.03.2020 15:00:00 (CEST)Cazaux, France (7502): reduced air pressure: 24.03.2020 15:00:00 - 30.03.2020 15:00:00 (CEST)Cazaux, France (7502): visibility: 24.03.2020 15:00:00 - 30.03.2020 15:00:00 (CEST)Cazaux, France (7502): Quantités de précipitations: 24.03.2020 15:00:00 - 30.03.2020 15:00:00 (CEST)
Date & Time tt [°C] td [°C] tt 5cm [°C] tt -20cm [°C] tt -100cm [°C] ff [km/h] ff [knt] fx [km/h] fx [knt] dd ppp [hPa] vv [km] rr [mm]
30.03.2020 15:00:00 3,4 1,4 4,2 12,4 14,6 19 10 35 19 NNE 1019,7 35 0,2
30.03.2020 14:00:00 3,1 1,8 3,3 12,4 14,6 19 11 43 23 NNE 1020,0 15 0,2
30.03.2020 13:00:00 2,6 1,3 3,2 12,5 14,7 21 11 41 22 NNE 1020,6 24 0,2
30.03.2020 12:00:00 2,8 1,2 3,6 12,5 14,7 27 15 49 26 NNE 1021,1 23 0,0
30.03.2020 11:00:00 3,8 1,7 2,4 12,6 14,6 30 16 48 26 N 1021,3 36 0,2
30.03.2020 10:00:00 2,0 1,0 1,9 12,6 14,7 19 10 32 17 N 1021,3 12 1,0
30.03.2020 09:00:00 2,4 1,2 2,5 12,7 14,6 16 9 34 18 N 1021,5 10 0,0
30.03.2020 08:00:00 2,6 0,7 2,5 12,8 14,7 21 11 42 23 N 1021,5 37 0,2
30.03.2020 07:00:00 2,6 0,5 2,5 12,8 14,7 27 15 41 22 N 1021,6 39 0,0
30.03.2020 06:00:00 4,7 -2,2 4,2 12,8 14,6 23 12 51 28 NNE 1021,8 60 0,0
30.03.2020 05:00:00 5,1 -2,5 4,6 12,9 14,7 26 14 49 26 N 1022,2 60 0,0
30.03.2020 04:00:00 5,4 -2,9 4,8 12,9 14,6 23 12 40 22 N 1022,6 60 0,0
30.03.2020 03:00:00 5,6 -3,8 4,9 13,0 14,7 22 12 40 22 N 1023,0 60 0,0
30.03.2020 02:00:00 6,1 -3,3 5,2 13,0 14,7 24 13 43 23 N 1023,3 60 0,0
30.03.2020 01:00:00 6,6 -3,6 5,3 13,1 14,7 24 13 38 20 N 1023,3 60 0,0
30.03.2020 00:00:00 6,8 -3,5 5,7 13,1 14,7 22 12 38 20 N 1023,2 60 0,0
29.03.2020 23:00:00 7,7 -2,9 6,7 13,1 14,7 20 11 33 18 NNE 1022,9 60 0,0
29.03.2020 22:00:00 7,3 -0,7 6,8 13,1 14,7 11 6 31 17 NNE 1023,1 59 0,0
29.03.2020 21:00:00 7,3 -0,4 6,9 13,1 14,7 21 11 56 30 NE 1023,0 55 0,0
29.03.2020 20:00:00 7,8 -1,2 7,5 13,0 14,7 25 14 43 23 NNE 1022,4 58 0,0
29.03.2020 19:00:00 7,8 -1,2 7,8 13,0 14,7 26 14 43 23 NNE 1022,2 51 0,0
29.03.2020 18:00:00 7,8 1,0 7,4 12,9 14,7 32 17 51 28 NNE 1021,9 32 0,0
29.03.2020 17:00:00 10,4 2,2 12,1 12,8 14,7 31 17 47 25 N 1021,3 20 0,0
29.03.2020 16:00:00 11,2 3,5 13,0 12,7 14,7 24 13 37 20 NNE 1021,2 35 0,0
29.03.2020 15:00:00 12,0 4,2 15,2 12,7 14,7 26 14 45 24 N 1021,4 20 0,0
29.03.2020 14:00:00 12,8 5,0 15,0 12,7 14,7 24 13 40 22 NNE 1021,4 20 0,0
29.03.2020 13:00:00 12,6 5,0 15,5 12,7 14,7 24 13 37 20 N 1021,7 19 0,0
29.03.2020 12:00:00 11,6 5,2 14,9 12,8 14,7 22 12 32 17 N 1021,9 17 0,0
29.03.2020 11:00:00 10,2 5,4 11,0 12,8 14,7 19 11 31 17 NNE 1021,7 11 0,0
29.03.2020 10:00:00 8,7 5,8 6,8 12,9 14,7 18 10 30 16 N 1021,6 7 0,0
29.03.2020 09:00:00 6,5 5,8 1,7 13,0 14,7 10 6 15 8 N 1021,2 3,9 0,0
29.03.2020 08:00:00 4,4 3,8 1,6 13,0 14,7 9 5 11 6 N 1020,7 2,6 0,0
29.03.2020 07:00:00 4,9 4,6 -1,7 13,1 14,7 6 3 9 5 NNW 1020,5 3,5 0,0
29.03.2020 06:00:00 2,7 1,8 -1,7 13,2 14,7 0 0 3 2 N 1020,3 5 0,0
29.03.2020 05:00:00 3,7 3,4 -1,8 13,3 14,7 0 0 2 1 N 1020,4 5 0,0
29.03.2020 04:00:00 2,4 1,8 -1,2 13,3 14,7 0 0 4 2 N 1020,6 0,6 0,0
29.03.2020 03:00:00 3,2 2,3 -0,5 13,4 14,7 4 2 11 6 NNW 1020,9 4,3 0,0
29.03.2020 02:00:00 5,4 3,7 0,2 13,4 14,7 7 4 12 7 NW 1021,1 3,7 0,0
29.03.2020 01:00:00 7,4 6,7 3,3 13,4 14,7 8 4 14 8 NNW 1021,3 4,8 0,0
29.03.2020 00:00:00 7,4 6,2 3,3 13,4 14,7 8 4 14 7 NNW 1021,2 7 0,0
28.03.2020 23:00:00 7,6 6,1 3,6 13,4 14,7 8 4 15 8 NNW 1021,0 8 0,0
28.03.2020 22:00:00 8,3 5,9 5,9 13,3 14,7 10 5 18 10 NNW 1020,7 10 0,0
28.03.2020 21:00:00 9,2 5,2 7,0 13,3 14,7 11 6 21 12 NNW 1020,1 13 0,0
28.03.2020 20:00:00 11,6 5,0 11,2 13,1 14,7 14 7 28 15 NNW 1019,7 15 0,0
28.03.2020 19:00:00 13,4 4,8 16,0 13,0 14,7 19 11 29 16 NW 1019,3 18 0,0
28.03.2020 18:00:00 14,1 3,8 17,8 12,9 14,7 21 12 32 18 NW 1018,9 18 0,0
28.03.2020 17:00:00 15,1 2,9 20,4 12,8 14,7 18 10 31 17 NW 1018,9 19 0,0
28.03.2020 16:00:00 15,9 3,3 20,4 12,7 14,7 19 10 28 15 WNW 1019,0 20 0,0
28.03.2020 15:00:00 16,3 3,7 21,6 12,7 14,7 17 9 29 16 WNW 1019,3 20 0,0
28.03.2020 14:00:00 16,1 2,1 22,5 12,6 14,7 13 7 25 14 N 1019,6 20 0,0
28.03.2020 13:00:00 15,7 2,1 20,9 12,6 14,7 13 7 23 13 NNE 1019,9 35 0,0
28.03.2020 12:00:00 14,7 1,6 20,3 12,6 14,7 12 7 18 10 NNE 1019,9 29 0,0
28.03.2020 11:00:00 13,9 4,2 17,8 12,7 14,7 5 3 9 5 NNE 1019,9 20 0,0
28.03.2020 10:00:00 10,3 4,6 6,5 12,8 14,7 3 2 7 4 N 1019,3 19 0,0
28.03.2020 09:00:00 4,1 3,7 -1,2 12,9 14,7 3 1 8 4 N 1019,1 10 0,0
28.03.2020 08:00:00 2,3 1,6 -1,6 12,9 14,7 4 2 5 3 NNW 1018,6 12 0,0
28.03.2020 07:00:00 3,3 2,6 -1,0 13,0 14,7 4 2 7 4 N 1018,3 12 0,0
28.03.2020 06:00:00 2,5 1,8 -2,7 13,1 14,7 6 3 9 5 NNW 1018,1 12 0,0
28.03.2020 05:00:00 3,0 2,3 -2,6 13,2 14,7 3 2 5 3 N 1018,0 13 0,0
28.03.2020 04:00:00 4,2 3,2 -0,6 13,2 14,8 5 3 9 5 N 1018,0 14 0,0
28.03.2020 03:00:00 4,4 2,7 0,3 13,3 14,7 7 4 13 7 N 1018,1 14 0,0
28.03.2020 02:00:00 5,7 4,5 2,1 13,3 14,8 10 5 12 6 N 1018,1 16 0,0
28.03.2020 01:00:00 5,8 4,0 2,5 13,3 14,7 10 5 13 7 N 1018,1 17 0,0
28.03.2020 00:00:00 7,1 4,4 3,9 13,3 14,7 10 5 14 8 NNW 1018,0 20 0,0
27.03.2020 23:00:00 8,2 4,6 5,3 13,3 14,7 12 7 16 9 N 1017,6 25 0,0
27.03.2020 22:00:00 9,0 4,2 6,0 13,3 14,8 11 6 17 9 N 1017,4 29 0,0
27.03.2020 21:00:00 10,0 4,1 7,8 13,2 14,8 12 7 19 11 N 1016,8 30 0,0
27.03.2020 20:00:00 11,9 3,6 11,4 13,1 14,8 11 6 27 15 NNW 1016,1 33 0,0
27.03.2020 19:00:00 13,4 4,0 15,3 13,0 14,7 16 9 31 17 NW 1015,7 28 0,0
27.03.2020 18:00:00 13,9 2,1 17,6 12,9 14,7 20 11 33 18 NW 1015,5 29 0,0
27.03.2020 17:00:00 14,2 3,0 18,7 12,8 14,8 19 11 35 19 NW 1015,6 43 0,0
27.03.2020 16:00:00 14,5 3,0 16,8 12,7 14,8 21 11 29 16 WNW 1015,8 20 0,0
27.03.2020 15:00:00 13,8 3,3 15,0 12,7 14,8 16 9 27 14 WNW 1016,0 30 0,0
27.03.2020 14:00:00 14,0 -0,1 21,2 12,6 14,8 11 6 27 15 NNW 1016,5 60 0,0
27.03.2020 13:00:00 13,0 2,2 19,5 12,7 14,7 6 4 19 10 N 1017,1 60 0,0
27.03.2020 12:00:00 12,7 3,6 16,4 12,7 14,8 6 3 13 7 NNE 1017,3 56 0,0
27.03.2020 11:00:00 10,0 3,9 8,6 12,8 14,8 0 0 5 3 N 1017,3 42 0,0
27.03.2020 10:00:00 4,5 2,8 3,7 13,0 14,8 0 0 3 2 N 1017,2 35 0,2
27.03.2020 09:00:00 0,8 -0,1 -4,0 13,0 14,8 0 0 6 4 N 1016,7 20 0,0
27.03.2020 08:00:00 -0,6 -1,3 -4,3 13,2 14,8 0 0 8 5 N 1016,3 20 0,0
27.03.2020 07:00:00 0,6 -0,3 -5,0 13,2 14,8 3 2 5 3 NNE 1016,0 19 0,0
27.03.2020 06:00:00 -0,4 -1,5 -4,3 13,3 14,7 0 0 10 6 N 1015,6 19 0,0
27.03.2020 05:00:00 0,2 -1,1 -4,2 13,4 14,8 0 0 6 3 N 1015,6 23 0,0
27.03.2020 04:00:00 0,9 -1,0 -2,9 13,5 14,8 4 2 7 4 N 1015,6 27 0,0
27.03.2020 03:00:00 1,0 -1,1 -1,8 13,6 14,8 5 3 7 4 N 1015,5 26 0,0
27.03.2020 02:00:00 2,4 -0,4 -1,4 13,6 14,8 2 1 8 4 NW 1015,0 19 0,0
27.03.2020 01:00:00 2,8 -1,8 -1,3 13,6 14,8 4 2 12 7 ENE 1015,2 30 0,0
27.03.2020 00:00:00 5,0 -1,0 1,1 13,7 14,8 5 3 24 13 N 1015,0 30 0,0
26.03.2020 23:00:00 7,7 -0,8 4,1 13,6 14,8 13 7 19 11 NNE 1014,6 32 0,0
26.03.2020 22:00:00 7,3 -0,7 3,6 13,6 14,7 10 6 15 8 N 1014,3 36 0,0
26.03.2020 21:00:00 8,8 -1,6 5,6 13,6 14,8 11 6 21 12 N 1013,5 40 0,0
26.03.2020 20:00:00 10,7 -2,0 10,1 13,5 14,8 13 7 39 21 N 1012,6 43 0,0
26.03.2020 19:00:00 11,7 -0,8 12,6 13,4 14,8 20 11 39 21 N 1012,0 30 0,0
26.03.2020 18:00:00 12,1 -0,4 13,0 13,3 14,8 24 13 41 22 NNW 1011,7 20 0,0
26.03.2020 17:00:00 12,9 -0,1 15,2 13,2 14,8 23 13 44 24 NW 1011,5 19 0,0
26.03.2020 16:00:00 13,6 -2,4 20,4 13,1 14,7 17 9 31 17 N 1011,4 40 0,0
26.03.2020 15:00:00 13,6 -0,5 20,3 13,1 14,8 14 8 25 13 N 1011,8 38 0,0
26.03.2020 14:00:00 12,8 -1,9 17,9 13,1 14,8 11 6 24 13 NE 1012,1 54 0,0
26.03.2020 13:00:00 11,8 -2,4 17,2 13,2 14,8 13 7 25 13 NE 1012,7 44 0,0
26.03.2020 12:00:00 9,8 -1,6 13,9 13,2 14,8 11 6 24 13 NNE 1012,9 42 0,0
26.03.2020 11:00:00 7,1 -1,6 9,9 13,3 14,8 18 10 29 16 NNE 1013,0 20 0,0
26.03.2020 10:00:00 5,9 -1,7 6,1 13,4 14,8 22 12 38 21 N 1012,8 20 0,0
26.03.2020 09:00:00 4,7 -1,3 1,6 13,5 14,8 16 9 24 13 N 1012,6 26 0,0
26.03.2020 08:00:00 3,4 -1,4 1,5 13,6 14,8 14 8 25 14 N 1012,3 27 0,0
26.03.2020 07:00:00 4,5 -0,9 1,9 13,7 14,8 16 9 26 14 N 1012,2 27 0,0
26.03.2020 06:00:00 5,1 -0,5 2,3 13,8 14,8 16 8 24 13 N 1012,1 30 0,0
26.03.2020 05:00:00 5,2 0,2 2,4 13,8 14,7 12 6 21 11 N 1012,3 29 0,0
26.03.2020 04:00:00 5,6 0,8 2,3 13,9 14,7 15 8 21 11 N 1012,5 30 0,0
26.03.2020 03:00:00 6,2 1,1 3,2 13,9 14,7 16 8 23 12 N 1013,1 31 0,0
26.03.2020 02:00:00 7,7 1,5 5,4 13,9 14,7 14 8 22 12 N 1013,4 36 0,0
26.03.2020 01:00:00 9,0 2,5 6,4 14,0 14,7 16 9 26 14 N 1013,8 46 0,0
26.03.2020 00:00:00 9,0 3,2 6,0 14,1 14,8 13 7 21 11 N 1014,2 60 0,0
25.03.2020 23:00:00 10,7 3,5 5,9 14,0 14,7 14 8 22 12 N 1014,3 60 0,0
25.03.2020 22:00:00 9,4 3,1 4,0 14,0 14,7 9 5 18 10 NNW 1014,0 60 0,0
25.03.2020 21:00:00 12,5 1,5 7,8 13,9 14,7 9 5 18 10 N 1013,6 60 0,0
25.03.2020 20:00:00 15,2 2,0 15,0 13,8 14,7 13 7 31 17 NNE 1013,3 60 0,0
25.03.2020 19:00:00 16,8 2,8 19,6 13,7 14,7 19 11 31 17 NE 1012,9 60 0,0
25.03.2020 18:00:00 17,4 2,9 20,3 13,7 14,8 18 10 33 18 NE 1012,8 42 0,0
25.03.2020 17:00:00 18,1 4,6 19,9 13,5 14,7 19 11 33 18 E 1013,1 57 0,0
25.03.2020 16:00:00 17,7 5,0 17,7 13,5 14,7 19 10 39 21 E 1013,5 38 0,0
25.03.2020 15:00:00 17,5 5,1 17,2 13,4 14,7 23 13 39 21 ENE 1014,0 53 0,0
25.03.2020 14:00:00 16,1 5,4 17,6 13,5 14,7 19 10 34 18 E 1014,7 56 0,0
25.03.2020 13:00:00 13,9 5,8 17,7 13,5 14,7 16 9 34 19 E 1015,0 58 0,0
25.03.2020 12:00:00 12,1 5,5 14,9 13,6 14,7 16 8 26 14 ENE 1015,1 57 0,0
25.03.2020 11:00:00 9,7 4,9 11,8 13,6 14,7 15 8 23 12 E 1015,3 45 0,0
25.03.2020 10:00:00 7,5 4,6 5,5 13,7 14,7 11 6 18 10 E 1015,7 38 0,0
25.03.2020 09:00:00 3,9 1,9 1,5 13,8 14,7 11 6 16 9 NE 1016,0 35 0,0
25.03.2020 08:00:00 3,3 0,0 -0,1 13,9 14,7 8 4 14 8 NNE 1015,5 52 0,0
25.03.2020 07:00:00 2,8 -0,7 -0,1 14,1 14,7 10 5 12 6 N 1015,4 60 0,0
25.03.2020 06:00:00 3,8 0,3 0,5 14,1 14,7 8 5 13 7 N 1015,5 60 0,0
25.03.2020 05:00:00 4,9 1,7 1,5 14,2 14,7 9 5 13 7 N 1015,9 57 0,0
25.03.2020 04:00:00 5,6 2,9 2,5 14,3 14,7 9 5 12 7 N 1016,3 53 0,0
25.03.2020 03:00:00 6,7 4,4 3,4 14,4 14,7 10 6 13 7 N 1016,8 47 0,0
25.03.2020 02:00:00 7,8 5,4 4,8 14,4 14,7 10 6 14 8 N 1017,0 39 0,0
25.03.2020 01:00:00 9,0 6,3 5,3 14,4 14,7 11 6 15 8 N 1017,2 32 0,0
25.03.2020 00:00:00 8,5 5,6 4,4 14,4 14,6 10 5 13 7 N 1017,5 34 0,0
24.03.2020 23:00:00 9,2 5,0 4,2 14,4 14,7 5 3 21 11 NNW 1017,5 20 0,0
24.03.2020 22:00:00 11,0 5,9 4,9 14,4 14,6 0 0 16 9 N 1017,5 54 0,0
24.03.2020 21:00:00 15,5 5,1 13,2 14,3 14,6 10 5 19 10 NE 1017,5 54 0,0
24.03.2020 20:00:00 17,3 4,6 16,5 14,2 14,7 13 7 21 12 NE 1017,3 58 0,0
24.03.2020 19:00:00 19,0 6,8 21,8 14,1 14,6 11 6 23 12 NNE 1016,9 51 0,0
24.03.2020 18:00:00 19,5 8,5 23,8 13,9 14,6 18 10 29 16 N 1017,0 20 0,0
24.03.2020 17:00:00 19,3 9,2 19,9 13,7 14,6 19 11 34 19 N 1017,7 20 0,0
24.03.2020 16:00:00 19,5 7,9 21,0 13,6 14,6 16 9 25 13 NNE 1018,3 41 0,0
24.03.2020 15:00:00 - - - - - - - - - - - - -

tt = Température de l'air
td = dewpoint
tt 5cm = Température de l'air 5cm
tt -20cm = Température de l'air -20cm
tt -100cm = Température de l'air -100cm
ff = Vitesse du vent
fx = gusts
dd = Direction du vent
ppp = reduced air pressure
vv = visibility
rr = Quantités de précipitations

stations d'obs. à proximité